Central Park Holiday Classic 10K & 4 Mile Race  -  12/14/2019
More info/Sign up   •    Contact Us
 
 
10K Open
Place Name
(click for detail)
Bib Age Gender
Place
Time Pace More
1 Steve Heagy 117 36 M 1/67 35:20.66 5:41/M
2 Ian Doyle 57 38 M 2/67 35:53.68 5:47/M
3 Gustavo Campiz 328 44 M 3/67 37:15.75 6:00/M
4 Erin Jaskot 319 23 F 1/97 37:18.76 6:00/M
5 Tomas Wawrzyniac 7150 34 M 4/67 39:22.54 6:20/M
6 Phillip Frener 324 37 M 5/67 41:48.72 6:44/M
7 Pablo Ortiz 204 29 M 6/67 41:50.22 6:44/M
8 Fausto Maza 7146 51 M 7/67 42:23.10 6:49/M
9 Abby Payson 211 24 F 2/97 42:26.78 6:50/M
10 Joey Sceusa 322 34 M 8/67 43:23.71 6:59/M
11 Caroline Ferri 73 22 F 3/97 43:25.98 6:59/M
12 Caroline Messner 180 21 F 4/97 43:33.08 7:01/M
13 Maricela Regalado Garcia 233 26 F 5/97 43:41.02 7:02/M
14 Gregory Rashford 232 41 M 9/67 43:57.22 7:04/M
15 Unknown Partic. 326 326 0 M 10/67 44:14.06 7:07/M
16 Lucas Mould 188 26 M 11/67 44:22.42 7:08/M
17 Hannah Hildreth 126 19 F 6/97 44:38.72 7:11/M
18 Karan Gupta 104 27 M 12/67 44:45.94 7:12/M
19 Guilherme Benchimol 14 43 M 13/67 44:49.42 7:13/M
20 Jen Heagy 116 36 F 7/97 45:04.20 7:15/M
21 Hector Vicente 288 43 M 14/67 45:21.98 7:18/M
22 Christopher Myer 192 35 M 15/67 46:47.14 7:32/M
23 Brad Tucker 280 41 M 16/67 46:47.20 7:32/M
24 Sam Davidowitz 329 27 M 17/67 47:04.62 7:35/M
25 Ana Clara Sucolotti 268 39 F 8/97 47:05.57 7:35/M
26 Michele Farina 69 52 F 9/97 47:25.08 7:38/M
27 Matthew Deye 49 30 M 18/67 48:04.29 7:44/M
28 Cheryl Martin 166 35 F 10/97 48:12.37 7:45/M
29 Jessi Soles 260 26 F 11/97 48:13.60 7:46/M
30 Daniel Schonfeld 249 40 M 19/67 48:43.88 7:51/M
31 Mindy Feinberg 308 44 F 12/97 49:04.96 7:54/M
32 Aram Barikian 10 38 M 20/67 49:11.50 7:55/M
33 Christopher Lohse 156 41 M 21/67 49:15.92 7:56/M
34 William Fuller 84 32 M 22/67 49:22.12 7:57/M
35 Francis Washkuch 293 39 M 23/67 49:34.86 7:59/M
36 Ed Feldman 71 39 M 24/67 50:19.59 8:06/M
37 Oscar Regalado Vergara 234 52 M 25/67 50:25.12 8:07/M
38 Jan-Willem Weijers 298 45 M 26/67 50:26.73 8:07/M
39 Kaitlin Wylie 301 29 F 13/97 50:32.14 8:08/M
40 Andrea Somogyi 262 43 F 14/97 50:38.65 8:09/M
41 Angela Wallace 291 29 F 15/97 51:07.95 8:14/M
42 Cal NeSmith 195 35 M 27/67 51:08.49 8:14/M
43 Amanda Lundy 7148 33 F 16/97 51:37.62 8:19/M
44 Renee Gilbert 91 57 F 17/97 51:47.84 8:20/M
45 Kate Majeski 7149 30 F 18/97 51:50.89 8:21/M
46 Tessa Howlett 131 49 F 19/97 51:51.13 8:21/M
47 Brant McAfee 171 39 M 28/67 52:47.68 8:30/M
48 Daniel Hovsepian 130 40 M 29/67 53:16.01 8:34/M
49 Gigja Sorensen 321 37 F 20/97 53:32.97 8:37/M
50 Montana Christy Ryzuk 242 23 F 21/97 53:33.17 8:37/M
51 Marc Ducey 316 59 M 30/67 53:35.61 8:38/M
52 Juan Falcon 68 40 M 31/67 53:40.91 8:38/M
53 Max Darrington 311 22 M 32/67 53:44.73 8:39/M
54 Martin Dattus 46 52 M 33/67 54:00.55 8:42/M
55 Alexander Fong 78 44 M 34/67 54:05.05 8:42/M
56 Mark Ducey 59 39 M 35/67 54:29.37 8:46/M
57 Luis Vasconcelos 285 55 M 36/67 54:45.81 8:49/M
58 Jamie Bannister 9 35 F 22/97 54:47.41 8:49/M
59 Ethan Burton 27 35 M 37/67 54:48.88 8:49/M
60 Ethan Silverstein 256 35 M 38/67 54:49.09 8:49/M
61 Riya Garg 87 22 F 23/97 55:15.65 8:54/M
62 Andrew Ferri 72 23 M 39/67 55:47.99 8:59/M
63 Tony Clark 312 55 M 40/67 55:54.23 9:00/M
64 Julie Clarke 32 47 F 24/97 55:54.29 9:00/M
65 Kelley Yole 303 30 F 25/97 56:28.70 9:05/M
66 MARY CHONG 31 43 F 26/97 56:31.01 9:06/M
67 Faith Tempest 272 55 F 27/97 56:53.90 9:09/M
68 Korin Scalia 246 32 F 28/97 56:54.82 9:10/M
69 DAVID LUPACK 159 45 M 41/67 56:55.20 9:10/M
70 Silke Feeken 70 51 F 29/97 57:06.18 9:11/M
71 Sam Shull 330 34 M 42/67 57:14.97 9:13/M
72 Matthew Griffith 101 26 M 43/67 57:30.47 9:15/M
73 Patricia Mueller 189 52 F 30/97 57:35.80 9:16/M
74 Adam Sawamura 245 28 M 44/67 57:36.58 9:16/M
75 Ariel Jimenez 136 43 M 45/67 57:36.80 9:16/M
76 Bonnie Hepler 118 33 F 31/97 58:05.72 9:21/M
77 Luis Enrique Niño 197 48 M 46/67 58:10.00 9:22/M
78 Stewart Cutler 315 62 M 47/67 58:15.06 9:22/M
79 Kelly Reid 235 33 F 32/97 58:32.77 9:25/M
80 Drew Goldberg 94 49 M 48/67 58:32.83 9:25/M
81 Unknown Partic. 318 318 0 M 49/67 58:45.19 9:27/M
82 Chris Koon 147 49 M 50/67 59:03.97 9:30/M
83 Patrick Dutton 61 38 M 51/67 59:18.76 9:33/M
84 Anne Liegel 155 31 F 33/97 59:32.31 9:35/M
85 sarah margolies 165 24 F 34/97 59:48.71 9:38/M
86 Carrie Rashford 231 41 F 35/97 59:50.79 9:38/M
87 Annie Maass 161 25 F 36/97 59:56.51 9:39/M
88 Chiara Evans 67 25 F 37/97 59:59.58 9:39/M
89 Jessica Medeiros 177 48 F 38/97 1:00:09.46 9:41/M
90 Valerie Gold 93 26 F 39/97 1:00:17.96 9:42/M
91 Ysaline Grisar 102 30 F 40/97 1:00:18.47 9:42/M
92 Jacqueline McAfee 172 35 F 41/97 1:00:37.48 9:45/M
93 Annie Grabinsky 98 25 F 42/97 1:00:56.58 9:48/M
94 Jackie Ferri 74 24 F 43/97 1:01:15.78 9:52/M
95 Caitlin Vance 283 31 F 44/97 1:01:23.63 9:53/M
96 patricia vargas 284 49 F 45/97 1:01:47.13 9:57/M
97 Edward silverman 254 64 M 52/67 1:01:49.32 9:57/M
98 Azam Khalfe 144 22 M 53/67 1:01:57.98 9:58/M
99 Kristen O'Neill 203 26 F 46/97 1:02:07.80 10:00/M
100 Megan Schwarzkopf 250 22 F 47/97 1:02:11.67 10:01/M
Show All Results

Contact elitefeats

For questions about a specific event, find contact info on that event's page

  • Chat/Email

    elitefeats

  • Phone

    (516) 531-3323

  • Fax

    (253) 322-2165

  • elitefeats

    170 Wood Road
    Centereach, NY 11720

Social Media